Regional Weather Roundup
Issued by NWS

Home | Current Version | Previous Version | Graphics & Text | Print | Product List | Glossary On
Versions: 1 2 3 4 5 6 7 8 9 10 11 12 13 14 15 16 17 18 19 20 21 22 23 24 25 26 27 28 29 30 31 32 33 34 35 36 37 38 39 40 41 42 43 44 45 46 47 48 49 50
000
ASUS44 KMEG 270600
RWRTN
TENNESSEE HOURLY STATE WEATHER ROUNDUP
NATIONAL WEATHER SERVICE MEMPHIS TN
100 AM CDT WED MAY 27 2015

TNZ002-004-019-021-049-052-054-088>092-270700-
WEST TENNESSEE

CITY           SKY/WX    TMP DP  RH WIND       PRES   REMARKS
MEMPHIS INTL   MOCLDY    72  66  81 S7        30.07S
NWS MEMPHIS      N/A     69 N/A N/A MISG        N/A
JACKSON        PTCLDY    67  63  87 S5        30.07F
DYERSBURG      PTCLDY    68  54  60 SE5       30.06F
PARIS          CLEAR     61  61 100 SE3       30.08F
LEXINGTON      CLEAR     66  64  94 S5        30.08F
$$

TNZ008-025-027-028-033-062-065-066-270700-
NORTH MIDDLE TENNESSEE

CITY           SKY/WX    TMP DP  RH WIND       PRES   REMARKS
NASHVILLE      PTCLDY    69  66  90 S6        30.11F
CLARKSVILLE    CLEAR     66  65  96 S3        30.08F
COOKEVILLE     PTCLDY    68  66  94 S3        30.15F
CROSSVILLE     PTCLDY    68  63  84 VRB6      30.20F
$$

TNZ061-075-076-078-094-096-097-270700-
SOUTH MIDDLE TENNESSEE

CITY           SKY/WX    TMP DP  RH WIND       PRES   REMARKS
FAYETTEVILLE   MOCLDY   N/A N/A N/A MISG      30.16F
TULLAHOMA      CLOUDY    68  64  88 S5        30.17F
WINCHESTER     CLEAR     66  64  94 S7        30.17F
MCMINNVILLE    CLEAR     70  70 100 VRB3      30.16F
COLUMBIA       CLEAR     70  68  94 S7        30.10F
SHELBYVILLE    MOCLDY    70  68  94 S6        30.15F
$$

TNZ017-018-042-046-047-270700-
NORTHEAST TENNESSEE

CITY           SKY/WX    TMP DP  RH WIND       PRES   REMARKS
TRI CITIES     MOCLDY    69  66  90 SW3       30.18F
ELIZABETHTON   PTCLDY    64  64 100 E6        30.19F
$$

TNZ012-013-036-069-073-074-270700-
CENTRAL EAST TENNESSEE

CITY           SKY/WX    TMP DP  RH WIND       PRES   REMARKS
KNOXVILLE      CLEAR     67  61  81 SW8       30.17F
OAK RIDGE      CLOUDY    69  66  90 SW5       30.19F
GATLINBURG     PTCLDY    64  61  88 NE5       30.17S
$$

TNZ083-085-099-270700-
SOUTHEAST TENNESSEE

CITY           SKY/WX    TMP DP  RH WIND       PRES   REMARKS
CHATTANOOGA    CLOUDY    67  64  90 S6        30.20S
$$

SKY/WX REPORTED AS FAIR MEANS FEW OR NO CLOUDS BELOW
12 THOUSAND FEET.



USA.gov is the U.S. government's official web portal to all federal, state and local government web resources and services.